Regional Weather Roundup
Issued by NWS

Home | Current Version | Previous Version | Graphics & Text | Print | Product List | Glossary On
Versions: 1 2 3 4 5 6 7 8 9 10 11 12 13 14 15 16 17 18 19 20 21 22 23 24 25 26 27 28 29 30 31 32 33 34 35 36 37 38 39 40 41 42 43 44 45 46 47 48 49 50
000
ASUS43 KDTX 020601
RWRMI
MICHIGAN HOURLY REGIONAL WEATHER ROUNDUP
NATIONAL WEATHER SERVICE DETROIT/PONTIAC MI
100 AM EST MON MAR 02 2015

NOTE: "FAIR" INDICATES FEW OR NO CLOUDS BELOW 12,000 FEET WITH NO
SIGNIFICANT WEATHER AND/OR OBSTRUCTION TO VISIBILITY.

MIZ047>049-052>055-059>063-066>070-074>076-081>083-020700-
SOUTHEAST LOWER MICHIGAN

CITY           SKY/WX    TMP DP  RH WIND       PRES   REMARKS
ADRIAN         CLOUDY    23  16  74 W14       30.26R WCI  11
6HR MIN TEMP:  19; 6HR MAX TEMP:  23;

ALMA           CLOUDY    24  19  81 W14G26    30.20R WCI  11
ANN ARBOR      FLURRIES  24  17  74 W13       30.23S WCI  12
BAD AXE        CLOUDY    21  18  86 W9        30.14F WCI  11
CARO           CLOUDY    22  18  84 SW9       30.16F WCI  12
DETROIT CITY   CLOUDY    26  15  63 W10       30.22R WCI  16
6HR MIN TEMP:  22; 6HR MAX TEMP:  26;

DETROIT        FLURRIES  24  16  71 W10       30.24S WCI  14
6HR MIN TEMP:  20; 6HR MAX TEMP:  24; 6HR PCP: TRACE;

FLINT          LGT SNOW  24  17  74 W9        30.19F WCI  14
6HR MIN TEMP:  24; 6HR MAX TEMP:  26; 6HR PCP: TRACE;

GROSSE ILE     CLOUDY    23  18  80 W5        30.23S WCI  17
HILLSDALE      LGT SNOW  22  17  79 W14       30.23S WCI  10
HOWELL         FLURRIES  22  18  85 SW10      30.20S WCI  11
6HR MIN TEMP:  21; 6HR MAX TEMP:  23;


CITY           SKY/WX    TMP DP  RH WIND       PRES   REMARKS
JACKSON        LGT SNOW  23  16  74 W12G21    30.22S WCI  12
6HR MIN TEMP:  21; 6HR MAX TEMP:  23; 6HR PCP: TRACE;

LAMBERTVILLE   CLOUDY    25  19  80 W6        30.26S WCI  18
LANSING        LGT SNOW  23  17  78 W16       30.21F WCI  10
6HR MIN TEMP:  23; 6HR MAX TEMP:  24; 6HR PCP: TRACE;

LAPEER         FLURRIES  23  18  81 W10       30.18S WCI  12
MASON          FLURRIES  23  18  80 W8        30.21F WCI  14
MONROE         CLOUDY    21  18  86 W8        30.24S WCI  12
MT. CLEMENS    MOCLDY    24  16  71 W10       30.18S WCI  14
6HR MIN TEMP:  21; 6HR MAX TEMP:  25;

PONTIAC        LGT SNOW  22  16  78 W13       30.18F WCI  10
6HR MIN TEMP:  19; 6HR MAX TEMP:  22; 6HR PCP: TRACE;

PORT HOPE        N/A     22  14  71 W10       30.11F WCI  11
6HR MIN TEMP:  22; 6HR MAX TEMP:  24;

PORT HURON     CLOUDY    23  16  74 W5        30.19S WCI  17
TRI CITIES     LGT SNOW  24  19  81 SW13      30.17S WCI  12
6HR MIN TEMP:  24; 6HR MAX TEMP:  25; 6HR PCP: TRACE;

TROY           FLURRIES  26  17  70 W7        30.22F WCI  18
SAGINAW HB     FLURRIES  25  19  80 SW9       30.17F WCI  15
$$
MIZ043>046-050>051-056>058-064>065-071>073-077>080-020700-
SOUTHWEST LOWER MICHIGAN

CITY           SKY/WX    TMP DP  RH WIND       PRES   REMARKS
BATTLE CREEK   FLURRIES  24  17  74 W13       30.24S WCI  12
6HR MIN TEMP:  24; 6HR MAX TEMP:  25; 6HR PCP: TRACE;

BENTON HARBOR  CLOUDY    23  17  78 W15G24    30.32R WCI  10
BIG RAPIDS     CLOUDY    22  14  71 NW7       30.18R WCI  14
6HR MIN TEMP:  22; 6HR MAX TEMP:  24;

COLDWATER      FLURRIES  22  17  80 W12G17    30.25F WCI  10
6HR MIN TEMP:  14; 6HR MAX TEMP:  23;

FREMONT        CLOUDY    24  13  63 NW12      30.22R WCI  13
HOLLAND        CLOUDY    27  18  69 W14G22    30.27R WCI  16
6HR MIN TEMP:  24; 6HR MAX TEMP:  27; 6HR PCP: TRACE;

GRAND RAPIDS   LGT SNOW  24  19  81 W18       30.23R WCI  10
6HR MIN TEMP:  23; 6HR MAX TEMP:  25; 6HR PCP: TRACE;

IONIA          LGT SNOW  25  20  83 W13       30.20R WCI  13
KALAMAZOO      LGT SNOW  23  17  78 W10       30.26S WCI  12
6HR MIN TEMP:  23; 6HR MAX TEMP:  24;

LUDINGTON      PTCLDY    25  10  53 NW14G23   30.23R WCI  13
6HR MIN TEMP:  24; 6HR MAX TEMP:  28;

MARSHALL       FLURRIES  22  17  81 W12       30.23S WCI  11
MOUNT PLEASANT PTCLDY    23  13  67 W15G22    30.17R WCI  10
6HR MIN TEMP:  23; 6HR MAX TEMP:  24;

MUSKEGON       MOCLDY    25  12  58 NW14G22   30.26R WCI  13
6HR MIN TEMP:  25; 6HR MAX TEMP:  28; 6HR PCP: TRACE;

SOUTH HAVEN    CLOUDY    26  18  71 NW10      30.30R WCI  17
$$
MIZ016>042-020700-
NORTHERN LOWER MICHIGAN

CITY           SKY/WX    TMP DP  RH WIND       PRES   REMARKS
ALPENA         CLOUDY    22  16  78 W10       30.09S WCI  11
6HR MIN TEMP:  22; 6HR MAX TEMP:  26; 6HR PCP: TRACE;

BEAVER ISLAND  MOCLDY    19  14  79 W12       30.13R WCI   7
6HR MIN TEMP:  19; 6HR MAX TEMP:  25;

BELLAIRE       CLEAR     21  12  69 CALM      30.16S
6HR MIN TEMP:  21; 6HR MAX TEMP:  24;

CADILLAC       PTCLDY    17  10  74 W8        30.13R WCI   6
CHARLEVOIX     PTCLDY    19  14  79 W13       30.17S WCI   7
6HR MIN TEMP:  19; 6HR MAX TEMP:  23;

FRANKFORT      PTCLDY    23  13  65 NW15G24   30.18S WCI  10
GAYLORD        PTCLDY    17  11  77 W12       30.08R WCI   4
6HR MIN TEMP:  17; 6HR MAX TEMP:  20; 6HR PCP: TRACE;

GRAYLING       PTCLDY    19  11  73 W7G17     30.11R WCI   9
6HR MIN TEMP:  19; 6HR MAX TEMP:  22;

HARBOR SPRINGS FAIR      19  12  73 W7        30.12R WCI  10
HOUGHTON LAKE  CLOUDY    19  11  70 W10       30.12R WCI   7
6HR MIN TEMP:  19; 6HR MAX TEMP:  21; 6HR PCP: TRACE;

MANISTEE       PTCLDY    23   9  54 NW18G24   30.21R WCI   9
OSCODA         FLURRIES  21  16  81 SW8       30.12R WCI  11
PELLSTON       PTCLDY    20   9  62 W9G20     30.11R WCI   9
6HR MIN TEMP:  20; 6HR MAX TEMP:  23; 6HR PCP: TRACE;

ROGERS CITY    CLOUDY    23  19  84 W10G18    30.09S WCI  12
TRAVERSE CITY  MOCLDY    19  10  68 SW3       30.16S
6HR MIN TEMP:  19; 6HR MAX TEMP:  24; 6HR PCP: TRACE;

$$
MIZ007>008-015-020700-
EASTERN UPPER MICHIGAN

CITY           SKY/WX    TMP DP  RH WIND       PRES   REMARKS
KINROSS        MOCLDY    16  16 100 W7        30.05S WCI   6
6HR MIN TEMP:  16; 6HR MAX TEMP:  21;

MACKINAC ISLAN MOCLDY    19  13  76 W15G22    30.08S WCI   5
6HR MIN TEMP:  19; 6HR MAX TEMP:  24;

NEWBERRY       CLOUDY    17  10  73 W13       30.07R WCI   4
6HR MIN TEMP:  17; 6HR MAX TEMP:  22;

S. S. MARIE    CLOUDY    18  14  84 W8        30.04F WCI   8
6HR MIN TEMP:  17; 6HR MAX TEMP:  21; 6HR PCP:  0.02;

MUNISING         N/A     22  12  65 NW14G22   30.13R WCI   9
6HR MIN TEMP:  22; 6HR MAX TEMP:  26;

$$
MIZ004>006-011>014-085-020700-
CENTRAL UPPER MICHIGAN

CITY           SKY/WX    TMP DP  RH WIND       PRES   REMARKS
MANISTIQUE     CLOUDY    20  10  64 W9        30.11S WCI   9
ESCANABA       PTCLDY    16   7  67 W8        30.17R WCI   5
6HR MIN TEMP:  16; 6HR MAX TEMP:  27;

MENOMINEE      CLEAR     18   5  57 W7        30.20R WCI   8
6HR MIN TEMP:  18; 6HR MAX TEMP:  23;

SAWYER-GWINN   MOCLDY    14   9  81 W6        30.10R WCI   5
6HR MIN TEMP:  14; 6HR MAX TEMP:  20;

$$
MIZ001>003-009>011-084-020700-
WESTERN UPPER MICHIGAN

CITY           SKY/WX    TMP DP  RH WIND       PRES   REMARKS
IRON MOUNTAIN  CLEAR     15   3  59 W8        30.13R WCI   4
6HR MIN TEMP:  15; 6HR MAX TEMP:  21;

HOUGHTON       PTCLDY    15   5  64 NW25G35   30.14R WCI  -4
6HR MIN TEMP:  15; 6HR MAX TEMP:  20;

COPPER HARBOR    N/A     18   8  65 N23G31    30.12R WCI   0
6HR MIN TEMP:  18; 6HR MAX TEMP:  23;

IRONWOOD       CLOUDY    18   9  68 NW17G26   30.20R WCI   2
6HR MIN TEMP:  18; 6HR MAX TEMP:  21;

$$

ABBREVIATIONS USED IN REMARKS
   TC - TEMPERATURE IN CELSIUS
  WCI - WIND CHILL INDEX
   HX - HEAT INDEX
  VSB - VISIBILITY




USA.gov is the U.S. government's official web portal to all federal, state and local government web resources and services.